カタログに戻る

DAQI-2

運用中科学SSO
NORAD 68760·PAYLOAD·🇨🇳 China

打ち上げ Apr 17, 2026 から Jiuquan Satellite Launch Center

Loading…

次のパス (今後24時間)

TLE

最新Source: Space-Track

元期: Sep 14, 2026, 14:51 UTC

1 68760U 26084A   26257.61914733  .00000277  00000-0  71059-4 0  9995
2 68760  98.2807 331.3718 0002300 149.4836 210.6497 14.57587132 21925

AllMySatでDAQI-2をリアルタイム追跡

Download on the App Store